METLOCID,DATE_TIME,AVG_WSPD,STDDEV_WSPD,MIN_WSPD,MAX_WSPD,N_WSPD
VAAM,11/1/94,6.488613861,2.864416597,0,11.4,404
VAAM,12/1/94,5.282264857,2.792162137,0,11.4,2137
VAAM,1/1/95,4.974760148,2.868098841,0.05,12.87,271
VAAM,2/1/95,5.410671642,3.983175191,0.01,18.76,670
VAAM,3/1/95,2.884513889,4.087515548,0.01,18.28,720
VAAM,4/1/95,3.038505587,4.236022462,0.01,18.57,716
VAAM,5/1/95,3.113618785,4.203148217,0.01,19.71,724
VAAM,6/1/95,5.542903226,5.734879324,0.01,23.29,713
VAAM,7/1/95,3.995249663,4.351178821,0.01,21.49,741
VAAM,8/1/95,4.772831978,5.374766182,0.02,19.97,738
VAAM,9/1/95,3.238278336,4.112064241,0.01,16.78,697
VAAM,10/1/95,2.93294197,3.226003801,0.01,15.42,741
VAAM,11/1/95,6.519907539,3.130323405,0.01,16.08,1406
VAAM,12/1/95,5.272365591,2.645326429,0,11.84,2976
VAAM,1/1/96,5.097600942,2.790073897,0,12.6,2972
VAAM,2/1/96,3.953448276,2.787086315,0,11.2,2784
VAAM,3/1/96,4.649126344,5.48774334,0,23.1,2976
VAAM,4/1/96,4.404305556,4.25751513,0,19.3,2880
VAAM,5/1/96,1.05672043,1.160380348,0,10.7,2976
VAAM,6/1/96,3.356944444,4.361658434,0,20.5,2880
VAAM,7/1/96,5.227486559,5.027789383,0,23.6,2976
VAAM,8/1/96,4.304435484,4.602124517,0,19.2,2976
VAAM,9/1/96,2.507326389,3.646876285,0,18.9,2880
VAAM,10/1/96,3.699395161,3.449406667,0,14.6,2976
VAAM,11/1/96,5.810038208,3.447747545,0,21,2879
VAAM,12/1/96,5.463340054,2.763497382,0,12.7,2976
VAAM,1/1/97,5.069590054,2.787467626,0,12,2976
VAAM,2/1/97,4.523474702,3.115769509,0,12.6,2688
VAAM,3/1/97,2.392137097,2.811839077,0,15.4,2976
VAAM,4/1/97,2.393819444,3.134136244,0,18.2,2880
VAAM,5/1/97,4.37281586,4.655989936,0,18.3,2976
VAAM,6/1/97,5.902412869,5.665355392,0,20.5,1492
VAAM,7/1/97,,,,,0
VAAM,8/1/97,,,,,0
VAAM,9/1/97,,,,,0
VAAM,10/1/97,,,,,0
VAAM,11/1/97,,,,,0
VAAM,12/1/97,,,,,0
VAAM,1/1/98,5.064841986,2.699800237,0.1,10.9,1772
VAAM,2/1/98,5.670647321,3.906385661,0,17.4,2688
VAAM,3/1/98,1.506821237,1.945574727,0,14.1,2976
VAAM,4/1/98,2.5928125,3.701339901,0,19.2,2880
VAAM,5/1/98,3.11969086,3.345410809,0,15.9,2976
VAAM,6/1/98,3.847916667,4.936020235,0,21.8,2880
VAAM,7/1/98,3.581350806,4.294459004,0,22.1,2976
VAAM,8/1/98,2.867103495,3.754237021,0,20.9,2976
VAAM,9/1/98,1.657361111,1.83466523,0,13.4,2880
VAAM,10/1/98,4.758534946,3.973758596,0,18.6,2976
VAAM,11/1/98,5.775555556,3.281086617,0.1,15.6,2880
VAAM,12/1/98,7.119657258,3.195631475,0.4,17.4,2976
VAAM,1/1/99,5.232605042,2.600332173,0.2,11.9,2975
VAAM,2/1/99,4.371986607,3.221537391,0,14.3,2688
VAAM,3/1/99,1.233649932,0.995565656,0,9.4,2948
VAAM,4/1/99,1.737152778,1.843304553,0,15.3,2880
VAAM,5/1/99,2.652352151,3.125576977,0,17.3,2976
VAAM,6/1/99,2.478055556,2.919726842,0,17.8,2880
VAAM,7/1/99,4.12953629,4.009286437,0,20,2976
VAAM,8/1/99,3.095396505,3.48934257,0,17.4,2976
VAAM,9/1/99,2.811145833,2.99386035,0,16.9,2880
VAAM,10/1/99,5.259005376,4.318954848,0,21.8,2976
VAAM,11/1/99,6.266979167,3.035691914,0.2,14.4,2880
VAAM,12/1/99,6.070967742,3.059971528,0.1,14.6,2976
VAAM,1/1/00,5.476680108,3.054791613,0.1,13.6,2976
VAAM,2/1/00,6.147413793,3.809636654,0,16.4,2784
VAAM,3/1/00,2.571068548,3.482451518,0,19.7,2976
VAAM,4/1/00,1.859756944,1.736919639,0,13.6,2880
VAAM,5/1/00,2.670967742,3.400638181,0,16.4,2976
VAAM,6/1/00,2.956701389,3.438023226,0,21.7,2880
VAAM,7/1/00,5.731888441,5.075425843,0,22.1,2976
VAAM,8/1/00,5.245430108,5.242123434,0,20.3,2976
VAAM,9/1/00,6.168958333,5.652049485,0,19.8,2880
VAAM,10/1/00,3.282862903,2.817812848,0,14.4,2976
VAAM,11/1/00,6.156770833,3.055106247,0.1,15.8,2880
VAAM,12/1/00,6.109139785,2.926105703,0,13,2976
VAAM,1/1/01,5.84233871,2.849799953,0,13.1,2976
VAAM,2/1/01,4.319233631,3.076573647,0,12.7,2688
VAAM,3/1/01,3.372110215,4.27993109,0,20.6,2976
VAAM,4/1/01,3.794109397,5.079510255,0,20.9,2852
VAAM,5/1/01,5.228158602,5.558039081,0,22.5,2976
VAAM,6/1/01,3.954375,3.891800095,0,18,2880
VAAM,7/1/01,3.888541667,4.437584295,0,18.9,2976
VAAM,8/1/01,2.300537634,3.397295966,0,21.7,2976
VAAM,9/1/01,2.968333333,3.695148195,0,18.8,2880
VAAM,10/1/01,4.290658602,3.928900045,0,19.6,2976
VAAM,11/1/01,5.480125087,3.08240114,0,13.8,2878
VAAM,12/1/01,6.455981183,3.207805267,0.1,15.5,2976
VAAM,1/1/02,5.918581989,2.993340643,0.1,16.1,2976
VAAM,2/1/02,4.676525298,3.099432025,0,15.5,2688
VAAM,3/1/02,3.579401882,3.602971105,0,17.5,2976
VAAM,4/1/02,2.949791667,3.508881198,0.1,16.2,2880
VAAM,5/1/02,3.692473118,3.658556054,0,16.6,2976
VAAM,6/1/02,3.496666667,4.482220986,0,20.9,2880
VAAM,7/1/02,4.361794355,4.619590219,0,19.3,2976
VAAM,8/1/02,3.284206989,3.475928156,0,17.7,2976
VAAM,9/1/02,2.947569444,3.106305869,0,13.3,2880
VAAM,10/1/02,2.606384409,2.87208522,0,14.8,2976
VAAM,11/1/02,5.410590278,3.681922031,0,17.3,2880
VAAM,12/1/02,6.449630376,2.701797696,0,13.1,2976
VAAM,1/1/03,5.315927419,2.528399038,0,12.5,2976
VAAM,2/1/03,4.131287202,2.673190357,0,13.1,2688
VAAM,3/1/03,2.434643817,2.65024611,0,13.5,2976
VAAM,4/1/03,1.6196875,1.90083378,0,16.1,2880
VAAM,5/1/03,5.469590054,4.706525343,0,19.5,2976
VAAM,6/1/03,2.353402778,3.68403928,0,18.7,2880
VAAM,7/1/03,4.607594086,4.573918327,0,20.4,2976
VAAM,8/1/03,3.297177419,3.992695696,0,20.9,2976
VAAM,9/1/03,4.181403509,4.497820747,0,16.9,855
VAAM,10/1/03,,,,,0
VAAM,11/1/03,,,,,0
VAAM,12/1/03,,,,,0
VAAM,1/1/04,4.991148776,3.121310924,0.1,11.4,531
VAAM,2/1/04,3.698239943,2.758433407,0,11.4,2784
VAAM,3/1/04,1.489180108,2.952427948,0,20.6,2976
VAAM,4/1/04,2.286493056,2.3657232,0,13.8,2880
VAAM,5/1/04,3.291935484,3.994556231,0,20,2976
VAAM,6/1/04,5.914583333,5.750136217,0,23.6,2880
VAAM,7/1/04,3.587701613,4.273710524,0,19.1,2976
VAAM,8/1/04,6.903763441,5.844541168,0,22.8,2976
VAAM,9/1/04,3.411458333,3.60071979,0,17.3,2880
VAAM,10/1/04,3.506552419,3.65831399,0,20.3,2976
VAAM,11/1/04,6.234444444,3.297744296,0.1,15.7,2880
VAAM,12/1/04,5.743529412,2.915032632,0,14.4,2975
VAAM,1/1/05,5.354771505,2.812179528,0,13.8,2976
VAAM,2/1/05,3.671949405,3.008359831,0.1,13.5,2688
VAAM,3/1/05,1.437130376,1.674421219,0,13.2,2976
VAAM,4/1/05,1.911597222,1.756477878,0,12.8,2880
VAAM,5/1/05,4.363071237,4.3248188,0,19.5,2976
VAAM,6/1/05,5.256666667,5.582928502,0,24.2,2880
VAAM,7/1/05,3.719018817,5.044343318,0,23.9,2976
VAAM,8/1/05,4.642775538,5.017589387,0,20.9,2976
VAAM,9/1/05,3.4115625,3.976451392,0,19.4,2880
VAAM,10/1/05,5.72328629,4.564946317,0,21,2976
VAAM,11/1/05,6.658298611,3.142893187,0,14.5,2880
VAAM,12/1/05,5.986055108,2.735463415,0,12,2976
VAAM,1/1/06,5.388676075,2.728994544,0,12,2976
VAAM,2/1/06,4.091517857,3.180343343,0,15.2,2688
VAAM,3/1/06,3.367741935,4.253937108,0,22.5,2976
VAAM,4/1/06,2.5065625,3.53777933,0,23.4,2880
VAAM,5/1/06,3.042876344,3.783438878,0,23.2,2976
VAAM,6/1/06,4.095173611,3.789568272,0,15.2,2880
VAAM,7/1/06,3.511391129,4.557334612,0,22.5,2976
VAAM,8/1/06,4.134879032,4.457581948,0,19.6,2976
VAAM,9/1/06,3.193159722,3.255903621,0,15.5,2880
VAAM,10/1/06,2.521169355,3.025888651,0,16.1,2976
VAAM,11/1/06,4.3028125,3.105415902,0,12.7,2880
VAAM,12/1/06,6.063709677,2.68761746,0.2,13.5,2976
VAAM,1/1/07,6.284240591,2.96768766,0.1,13.5,2976
VAAM,2/1/07,4.426971726,2.893850528,0,13.6,2688
VAAM,3/1/07,3.549361559,3.602948316,0,15.9,2976
VAAM,4/1/07,4.028368056,4.756355954,0,21.7,2880
VAAM,5/1/07,3.724193548,4.870156005,0,22.6,2976
VAAM,6/1/07,4.374826389,4.148676849,0,23.1,2880
VAAM,7/1/07,4.266263441,4.36088854,0.1,17.5,2976
VAAM,8/1/07,3.891465054,4.696615023,0,25.1,2976
VAAM,9/1/07,3.711666667,3.822234725,0,19,2880
VAAM,10/1/07,4.741229839,4.146913446,0,21.8,2976
VAAM,11/1/07,5.07625,2.783909974,0,12.7,2880
VAAM,12/1/07,5.824361559,2.650784174,0.2,13.1,2976
VAAM,1/1/08,5.571370968,2.553209271,0.1,11.9,2976
VAAM,2/1/08,4.157291667,2.590857914,0.1,10.8,2784
VAAM,3/1/08,2.890188172,3.620659371,0,17.3,2976
VAAM,4/1/08,2.326493056,3.072910953,0,22.3,2880
VAAM,5/1/08,2.790120968,3.602623207,0,17.7,2976
VAAM,6/1/08,4.168020833,4.484807619,0,22.9,2880
VAAM,7/1/08,4.009307796,4.751234503,0,22.8,2976
VAAM,8/1/08,4.179301075,5.017795724,0,22.3,2976
VAAM,9/1/08,6.691631944,4.845043386,0.2,21.9,2880
VAAM,10/1/08,3.029872312,2.753685039,0,13,2976
VAAM,11/1/08,6.343645833,3.548423703,0.2,16.1,2880
VAAM,12/1/08,6.664391392,2.968125265,0.1,17.2,2974
VAAM,1/1/09,5.909038978,2.898286184,0.2,13.9,2976
VAAM,2/1/09,3.978050595,2.707644348,0.1,13.5,2688
VAAM,3/1/09,2.286122312,2.946101646,0,15.8,2976
VAAM,4/1/09,3.505208333,3.571356752,0,16.3,2880
VAAM,5/1/09,2.245732527,3.546806152,0,16.1,2976
VAAM,6/1/09,0.077673611,1.004158497,0,18.1,2880
VAAM,7/1/09,4.239247312,4.562849468,0,20.5,2976
VAAM,8/1/09,4.359509409,5.238966185,0,22.8,2976
VAAM,9/1/09,5.268333333,5.562428296,0,22,2880
VAAM,10/1/09,3.619119624,3.409020269,0,18.8,2976
VAAM,11/1/09,5.642033627,3.073120804,0,14.4,2498
VAAM,12/1/09,6.347807757,3.164646386,0.1,13.5,1186
VAAM,1/1/10,6.106225241,2.823059825,0.1,11.9,1767
VAAM,2/1/10,6.194314381,3.091708078,0.1,12.7,299
VAAM,3/1/10,3.3125,2.39884454,0.2,8.3,40
VAAM,4/1/10,,,,,0
VAAM,5/1/10,2.253046595,2.17504461,0.1,12.6,837
VAAM,6/1/10,3.482478219,3.260227327,0.1,14,1033
VAAM,7/1/10,9.578178368,3.719683296,1.3,17.3,527
VAAM,8/1/10,10.75919118,3.646228586,0.6,22,816
VAAM,9/1/10,9.027586207,5.171768338,0.4,20.6,406
VAAM,10/1/10,5.28678501,3.730257741,0.1,16.3,2028
VAAM,11/1/10,6.885073442,3.450857703,0,17.4,2519
VAAM,12/1/10,6.240793011,2.972241761,0.3,16.1,2976
VAAM,1/1/11,5.059979839,2.631062258,0.1,11.5,2976
VAAM,2/1/11,3.755952381,2.642559459,0,13.2,2688
VAAM,3/1/11,2.722143817,3.654653795,0,20.2,2976
VAAM,4/1/11,3.555625,4.256137055,0,20.4,2880
VAAM,5/1/11,2.526041667,2.945497733,0,18,2976
VAAM,6/1/11,3.409791667,3.256667827,0,15.9,2880
VAAM,7/1/11,4.298487903,4.739869984,0,18.6,2976
VAAM,8/1/11,4.06155914,4.167315093,0,21.6,2976
VAAM,9/1/11,4.177430556,4.238957949,0,20,2880
VAAM,10/1/11,5.39233871,4.453522648,0,20.2,2976
VAAM,11/1/11,5.105486111,2.796201048,0.1,14.4,2880
VAAM,12/1/11,5.646779237,2.845640993,0.2,13,1599
VAAM,1/1/12,5.885085784,3.046611708,0.21,14.5,2448
VAAM,2/1/12,5.394762931,3.852632861,0.11,17.37,2784
VAAM,3/1/12,3.044163306,3.327142864,0.01,18.58,2976
VAAM,4/1/12,2.464288194,3.148302704,0.04,18.68,2880
VAAM,5/1/12,6.304126344,5.784756356,0,20.44,2976
VAAM,6/1/12,4.418496528,5.286993681,0,23.79,2880
VAAM,7/1/12,3.082231183,3.563870485,0,17.82,2976
VAAM,8/1/12,6.116229839,5.657299011,0.03,24.79,2976
VAAM,9/1/12,2.79378125,3.294827913,0,15.35,2880
VAAM,10/1/12,3.85968078,3.492070008,0,16.84,2976
VAAM,11/1/12,5.09853125,3.013072507,0,13.03,2880
VAAM,12/1/12,5.362795699,2.79139059,0,11.72,2976
VAAM,1/1/13,5.489801747,2.754731153,0.14,12.51,2976
VAAM,2/1/13,4.285301339,2.722050891,0.02,12.6,2688
VAAM,3/1/13,2.168961694,2.325213303,0,15.3,2976
VAAM,4/1/13,1.848784722,2.684253269,0,16.4,2880
VAAM,5/1/13,3.5641878,4.092626866,0,19.8,2918
VAAM,6/1/13,2.337951389,2.778458915,0,14.8,2880
VAAM,7/1/13,2.160853495,2.841142475,0,15.7,2976
VAAM,8/1/13,4.032090054,4.316763704,0,18.1,2976
VAAM,9/1/13,4.387266617,4.618292703,0,22.2,2678
VAAM,10/1/13,3.278662634,3.332910761,0,19.1,2976
VAAM,11/1/13,5.098680556,3.063289509,0,13.5,2880
VAAM,12/1/13,6.239885753,2.848574791,0,13.8,2976
VAAM,1/1/14,5.857166387,3.052555381,0.01,16.02,2975
VAAM,2/1/14,5.535677083,3.364548154,0.02,16.37,2688
VAAM,3/1/14,3.459331317,3.874310555,0,17.06,2976
VAAM,4/1/14,4.908736111,4.961835136,0.02,24.24,2880
VAAM,5/1/14,3.6490625,3.99077679,0,19.24,2976
VAAM,6/1/14,3.248486111,3.699496037,0.02,21.19,2880
VAAM,7/1/14,2.536959005,3.450690462,0,21.41,2976
VAAM,8/1/14,4.698195565,4.166600622,0,19.84,2976
VAAM,9/1/14,4.49178125,4.511962979,0,18.19,2880
VAAM,10/1/14,4.693198925,3.707319499,0,19.06,2976
VAAM,11/1/14,4.703333333,2.969433163,0,14.74,2880
VAAM,12/1/14,5.818742857,2.610398268,0,11.54,2975
VAAM,1/1/15,4.795050403,2.806081534,0.05,12.84,2976
VAAM,2/1/15,4.421986607,2.967699628,0,13.55,2688
VAAM,3/1/15,2.265255376,2.687496564,0,16.06,2976
VAAM,4/1/15,2.439079861,2.601360137,0,14.84,2880
VAAM,5/1/15,2.49343414,3.736435829,0,21.21,2976
VAAM,6/1/15,3.787763889,5.011431503,0,21.71,2880
VAAM,7/1/15,3.823786962,4.362341204,0,20.51,2976
VAAM,8/1/15,4.31516129,4.29392994,0,21.48,2976
VAAM,9/1/15,3.78453125,3.809039721,0.01,19.13,2880
VAAM,10/1/15,5.192988403,3.826478708,0,18.15,2242
VAAM,12/1/15,6.240928718,2.915407993,0.18,16.32,2918
VAAM,1/1/16,5.964320532,2.40781464,0.25,10.82,1354
VAAM,2/1/16,3.806916414,2.989487738,0.05,13.1,2309
VAAM,3/1/16,2.117620968,2.983820548,0,17.87,2976
VAAM,4/1/16,0.821105485,0.406876961,0,2.5,1185
VAAM,5/1/16,4.815838229,5.512130613,0,25.29,2213
VAAM,6/1/16,2.7705,3.35020703,0,18.15,2880
VAAM,7/1/16,2.526080937,3.524467125,0,19.36,2817
VAAM,8/1/16,2.491311587,3.101175658,0,18.89,2943
VAAM,9/1/16,2.979805556,3.563996273,0.01,18.91,2880
VAAM,10/1/16,3.227896505,3.099051079,0,17.36,2976
VAAM,11/1/16,6.766072917,3.905313108,0.02,18.95,2880
VAAM,12/1/16,6.363188406,3.170140774,0.05,18.13,2967
VAAM,1/1/17,6.269553091,3.224757418,0.09,15.94,2976
VAAM,2/1/17,6.277682292,3.704167191,0.03,18.36,2688
VAAM,3/1/17,2.385386425,2.663094274,0,15.96,2976
VAAM,4/1/17,2.758517361,4.038822369,0,24.48,2880
VAAM,5/1/17,4.992940188,5.153876595,0.01,23.84,2976
VAAM,6/1/17,3.195930556,3.597489375,0,24.63,2880
VAAM,7/1/17,4.237983871,4.596028183,0.01,23.58,2976
VAAM,8/1/17,4.060500672,4.24924879,0,25.72,2976
VAAM,9/1/17,3.737427083,4.723346324,0,22.76,2880
VAAM,10/1/17,4.499784946,3.657712269,0,17.4,2976
VAAM,11/1/17,6.056350694,3.779269459,0.16,19.9,2880
VAAM,12/1/17,6.273455957,3.142066524,0.32,15.15,2963
VAAM,1/1/18,5.584075941,3.134505017,0.07,13.33,2976
VAAM,2/1/18,4.792005208,3.863669024,0,17.93,2688
VAAM,3/1/18,2.872526882,2.68398566,0,14.26,2976
VAAM,4/1/18,5.469652778,6.414907662,0,24.63,2880
VAAM,5/1/18,2.310950941,2.666139942,0,15.09,2976
VAAM,6/1/18,3.604496528,3.832316927,0,24.86,2880
VAAM,7/1/18,6.091864919,6.360733818,0,24.57,2976
VAAM,8/1/18,3.422752016,4.190430072,0,20.02,2976
VAAM,9/1/18,5.242329861,5.210496509,0,24.06,2880
VAAM,10/1/18,5.430913978,3.643698837,0.03,16.86,2976
VAAM,11/1/18,5.969711806,3.595775852,0,18.78,2880
VAAM,12/1/18,5.865782841,2.936207405,0.07,13.2,2063